Location: Владивосток
(43.1151°N, 131.8856°E)
Time: 01:54:32
(UTC+10:00)

FO-29 - Pass Details

Date: 25 April 2024
Orbit: 801 x 1320 km, 98.6° (Epoch: 19 May)

Event Time Altitude Azimuth Distance (km) Brightness Sun altitude
Rises 02:23:14 0° 18° (NNE) 4,211 14.0 -31.3°
Reaches altitude 10° 02:26:02 10° 25° (NNE) 3,284 13.1 -31.1°
Maximum altitude 02:33:25 47° 97° (E) 1,698 10.7 -30.6°
Enters shadow 02:35:33 39° 136° (SE) 1,891 10.7 -30.4°
